Location: Walnut Street Observatory
(41.0583°N, 76.2295°W)
Time: 10:53:50
(UTC-04:00)

Daily predictions for brighter satellites

Satellite Brightness Start Highest point End
(mag) Time Altitude Azimuth Time Altitude Azimuth Time Altitude Azimuth
Cosmos 1666 4.0 20:52:33 10° NNE 20:55:52 26° ENE 20:59:10 10° SE
Cosmos 1500 3.7 20:53:22 10° NNW 20:57:13 65° W 21:01:04 10° S
Lacrosse 5 rocket 1.4 20:54:54 10° SW 20:58:43 79° NW 21:02:45 10° NE
Cosmos 1331 Rocket 4.1 20:55:48 10° NNW 21:01:01 64° ENE 21:06:08 10° SSE
Lacrosse 5 3.9 20:58:28 10° W 21:02:59 32° NNW 21:07:31 10° NNE
Meteor 1-23 Rocket 4.4 20:58:52 10° S 21:04:21 58° E 21:09:57 10° NNE
Cosmos 2285 Rocket 4.2 20:59:59 10° NNW 21:06:16 64° ENE 21:12:33 10° SSE
Cosmos 1743 2.7 21:03:33 10° N 21:07:25 87° W 21:11:15 10° S
Cosmos 1302 Rocket 4.5 21:05:11 10° N 21:10:13 46° ENE 21:15:14 10° SE
Cosmos 1726 Rocket 3.6 21:06:22 10° N 21:10:52 90° E 21:15:16 10° S
ALOS 3.2 21:10:03 10° S 21:14:33 48° W 21:19:06 10° NNW
SeaSat 1 2.9 21:10:27 10° SE 21:15:11 48° ENE 21:19:56 10° NNW
Okean 2 3.4 21:11:32 10° S 21:15:40 66° E 21:19:49 10° NNE
Cosmos 1603 4.3 21:13:33 10° SSE 21:18:31 33° ESE 21:23:29 10° NE
CZ-4B R/B 4.5 21:14:49 10° NE 21:19:08 27° E 21:23:30 10° SSE
Cosmos 1464 Rocket 4.0 21:13:18 10° N 21:19:27 72° E 21:25:35 10° SSE
Cosmos 2058 Rocket 3.0 21:17:27 10° N 21:21:52 90° SW 21:26:13 10° S
APEX 3.8 21:18:32 10° NNW 21:22:27 57° ENE 21:26:55 13° SE
Meteor 2-9 Rocket 4.3 21:17:59 10° N 21:23:40 71° E 21:29:26 10° SSE
Meteor 2-4 Rocket 3.9 21:20:53 10° S 21:26:44 90° NW 21:32:42 10° N
Cosmos 1602 Rocket 3.9 21:25:04 10° SSE 21:29:21 47° E 21:33:40 10° NNE
Cosmos 2333 Rocket 4.3 21:25:21 10° WSW 21:30:21 32° WNW 21:35:23 10° N
Cosmos 2251 Rocket 4.4 21:25:57 10° SW 21:31:08 54° WNW 21:36:24 10° N
Cosmos 1461 3.5 21:27:28 10° NNW 21:31:39 45° NE 21:34:38 16° ESE
deb Chang Zheng 4 3.9 21:27:41 10° N 21:32:05 70° WNW 21:36:25 10° SSW
Cosmos 2297 4.1 21:27:25 10° NNW 21:33:03 62° WSW 21:38:41 10° S
ATLAS 3B R/B 4.1 21:29:52 11° SSE 21:34:54 21° ESE 21:40:13 10° ENE
Milstar 3 Cent rocket 4.0 21:31:18 10° WSW 21:36:07 18° SSW 21:39:27 11° SSE
Cosmos 2034 Rocket 4.0 21:30:57 10° N 21:37:20 74° E 21:43:36 10° SSE
PSLV R/B 3.1 21:37:02 18° SSE 21:39:12 68° ENE 21:42:18 10° N
CZ-2C R/B 3.1 21:37:42 10° SW 21:39:24 18° W 21:41:07 10° NW
Cosmos 1812 Rocket 4.1 21:35:45 10° N 21:39:55 41° ENE 21:42:44 18° SE
ERS-1 Rocket 3.9 21:38:36 10° S 21:43:26 47° W 21:48:17 10° NNW
Cosmos 1943 4.4 21:41:51 17° SE 21:44:21 23° E 21:48:39 10° NE
Envisat 3.0 21:39:39 11° SSE 21:44:29 89° E 21:49:36 10° NNW
BREEZE-M DEB (TANK) 2.2 21:40:51 10° SW 21:45:37 65° SSE 21:47:50 10° ENE
USA 234 3.4 21:43:14 16° ESE 21:48:44 74° NE 21:55:18 10° NW
YAOGAN 6 3.1 21:50:25 23° SE 21:52:20 46° ENE 21:55:57 10° N
H-2A R/B 3.3 21:49:16 10° SSW 21:53:12 38° W 21:57:15 10° NNW
Cosmos 1943 Rocket 4.3 21:54:18 10° NNE 21:56:50 13° NE 21:59:23 10° ENE
MetOp-A 4.1 21:56:20 18° SSE 22:00:28 85° ENE 22:05:51 10° NNW
Abrixas rocket 2.5 21:59:03 10° WNW 22:02:25 56° SSW 22:03:38 34° SSE
Cosmos 1626 Rocket 3.8 21:58:27 10° SSW 22:02:53 74° W 22:07:19 10° N
Meteor 2-12 Rocket 4.4 22:05:31 10° N 22:11:38 75° E 22:15:36 23° SSE
Atlas Centaur 2 3.6 22:06:57 10° SW 22:13:56 34° SSE 22:18:15 22° ESE
CZ-4C R/B 3.9 22:15:26 32° SE 22:17:00 47° ENE 22:20:59 10° N
Cosmos 1953 Rocket 4.2 22:18:27 33° SE 22:19:31 38° E 22:23:37 10° NNE
H-2A R/B 2.8 22:19:20 26° ESE 22:21:15 35° ENE 22:25:48 10° N
PSLV R/B 3.4 22:18:38 10° WSW 22:22:07 54° SSE 22:22:27 51° SE
COSMOS 2455 2.7 22:17:23 10° SSW 22:23:21 77° ESE 22:29:23 10° NNE
Cosmos 1992 Rocket 4.1 22:18:16 10° NNW 22:23:29 63° ENE 22:25:45 33° SE
CZ-4 R/B 3.8 22:19:04 10° NNE 22:24:04 78° ESE 22:27:22 22° S
Cosmos 2369 Rocket 2.6 22:23:21 10° NNW 22:28:53 51° ENE 22:31:20 31° ESE
SPOT 1/Viking Rocket 3.6 22:26:43 26° S 22:29:42 73° WSW 22:34:52 10° NNW
SPOT 5 4.1 22:26:56 14° SSW 22:30:15 32° W 22:34:11 10° NNW
DELTA 2 DEB (DPAF) 4.2 22:29:30 39° SE 22:31:05 69° ENE 22:35:34 10° N
ARGOS 3.1 22:29:23 29° SSE 22:32:14 88° WSW 22:37:42 10° NNW
IGS 5A 4.2 22:36:44 35° E 22:37:27 38° ENE 22:41:18 10° N
Cosmos 1953 4.1 22:34:54 10° NNE 22:37:43 18° ENE 22:37:47 18° ENE
Geosat 3.9 22:33:30 10° NNE 22:38:33 80° ESE 22:42:04 20° SSW
Lacrosse 5 rocket 4.4 22:36:02 10° WNW 22:38:38 16° NNW 22:41:19 10° NNE
Cosmos 1190 Rocket 4.0 22:37:27 34° S 22:39:34 60° ESE 22:44:49 10° NNE
NOAA 11 4.2 22:37:27 32° S 22:40:04 83° WSW 22:45:32 10° NNW
Landsat 7 3.8 22:40:04 42° SSE 22:41:37 73° ENE 22:46:22 10° N
Cosmos-2242 4.1 22:40:49 10° NNE 22:44:41 29° ENE 22:45:05 29° E
Meteor 1-22 Rocket 4.2 22:39:57 10° N 22:45:30 73° E 22:47:39 39° SSE
DEBRIS 4.3 22:43:19 10° W 22:45:18 16° WSW 22:45:18 16° WSW
Spot 2 4.5 22:45:26 10° NNE 22:50:06 55° ESE 22:51:03 47° SE
Cosmos 2263 4.5 22:44:43 10° NNW 22:50:14 55° ENE 22:52:07 38° ESE
SeaSat 1 4.3 22:50:09 14° SSW 22:52:53 22° WSW 22:56:43 10° NW
Cosmos 1758 Rocket 3.4 22:53:08 57° SSE 22:53:56 75° E 22:58:19 10° NNE
Lacrosse 4 Rocket 1.8 22:55:02 43° ENE 22:55:02 43° ENE 22:58:16 10° NE
Cosmos 676 Rocket 4.3 22:54:56 45° SE 22:55:46 49° ESE 23:00:55 10° NNE
SL-08 RB Rocket 4.1 22:55:15 37° SSW 22:56:46 55° W 23:01:14 10° NNW
Terra 1.8 22:56:20 52° SE 22:57:24 73° ENE 23:02:10 10° N
CARTOSAT-1 3.4 22:57:34 62° SE 22:58:14 79° ENE 23:02:35 10° N
Cosmos 1066 Rocket 4.5 22:57:30 24° SSW 23:00:55 68° W 23:06:43 10° N
Cosmos 1346 Rocket 2.9 23:03:05 58° SW 23:03:38 68° W 23:07:33 10° N
Cosmos 1140 Rocket 4.5 23:09:35 31° E 23:09:35 31° E 23:13:42 10° NE
Cosmos 1900 4.3 23:17:41 61° S 23:18:28 74° ESE 23:23:37 10° NE
Meteor 1-21 4.3 23:19:02 41° SSW 23:21:09 78° W 23:26:59 10° N
Cosmos 1758 3.7 23:18:02 10° N 23:21:45 55° ENE 23:21:45 55° ENE
Cosmos 1842 3.4 23:23:02 73° N 23:23:02 73° N 23:26:38 10° N
Nadezhda 4 Rocket 4.2 23:21:21 47° SE 23:22:43 57° E 23:28:53 10° NNE
Cosmos 1842 Rocket 4.4 23:19:58 10° N 23:23:51 39° ENE 23:23:51 39° ENE
ATLAS 3B R/B 2.9 23:17:08 10° SW 23:24:52 84° WNW 23:32:27 10° NNE
SL-27 R/B 4.4 23:29:34 22° NE 23:29:34 22° NE 23:30:57 10° NNE
Cosmos 1943 3.9 23:23:34 16° SW 23:27:58 51° WNW 23:33:31 10° NNE
Cosmos 407 Rocket 3.8 23:27:24 35° SW 23:29:31 62° WNW 23:34:43 10° NNE
USA 234 4.2 23:30:35 28° SSW 23:32:03 31° SW 23:37:45 10° WNW
Cosmos 2208 Rocket 4.4 23:32:44 10° N 23:37:45 47° ENE 23:38:18 45° E
Cosmos 1943 Rocket 2.0 23:35:57 10° NNW 23:41:31 78° ENE 23:42:15 66° SE
Cosmos 1766 4.5 23:38:38 10° NNW 23:42:13 36° W 23:42:13 36° W
Cosmos 1954 Rocket 4.1 23:47:02 58° SW 23:48:00 74° WNW 23:53:20 10° NNE
CZ-4B R/B 3.8 23:50:30 19° NE 23:50:30 19° NE 23:52:29 10° NNE
